TimeCDT,TemperatureF,Dew PointF,Humidity,Sea Level PressureIn,VisibilityMPH,Wind Direction,Wind SpeedMPH,Gust SpeedMPH,PrecipitationIn,Events,Conditions,WindDirDegrees,DateUTC
12:14 AM,26.6,24.8,93,30.02,2.0,North,18.4,-,0.00,Snow,Light Snow,350,2013-03-25 05:14:00
12:28 AM,26.6,23.0,86,30.02,4.0,NNW,17.3,-,0.00,Snow,Light Snow,340,2013-03-25 05:28:00
12:52 AM,26.1,21.9,84,30.08,9.0,NNW,19.6,-,0.00,,Overcast,340,2013-03-25 05:52:00
1:52 AM,25.0,21.0,85,30.09,4.0,NNW,15.0,-,0.00,Snow,Light Snow,340,2013-03-25 06:52:00
2:03 AM,24.8,21.2,86,30.03,2.5,NNW,17.3,-,0.00,Snow,Light Snow,340,2013-03-25 07:03:00
2:15 AM,24.8,21.2,86,30.03,3.0,NNW,18.4,-,0.00,Snow,Light Snow,340,2013-03-25 07:15:00
2:25 AM,24.8,21.2,86,30.03,2.0,NNW,17.3,-,0.00,Snow,Light Snow,340,2013-03-25 07:25:00
2:43 AM,24.8,21.2,86,30.03,5.0,NNW,16.1,-,0.00,Snow,Light Snow,340,2013-03-25 07:43:00
2:52 AM,24.1,21.0,88,30.08,5.0,NNW,16.1,-,0.00,Snow,Light Snow,340,2013-03-25 07:52:00
3:32 AM,24.8,21.2,86,30.03,8.0,NNW,15.0,-,0.00,,Overcast,340,2013-03-25 08:32:00
3:52 AM,25.0,21.0,85,30.08,7.0,NNW,15.0,-,0.00,Snow,Light Snow,340,2013-03-25 08:52:00
4:27 AM,24.8,21.2,86,30.03,6.0,NNW,15.0,-,0.00,Snow,Light Snow,340,2013-03-25 09:27:00
4:52 AM,25.0,21.0,85,30.09,10.0,NNW,15.0,-,0.00,,Overcast,340,2013-03-25 09:52:00
5:16 AM,24.8,21.2,86,30.04,10.0,NNW,13.8,-,N/A,,Overcast,340,2013-03-25 10:16:00
5:52 AM,25.0,21.0,85,30.10,6.0,NNW,16.1,-,0.00,Snow,Light Snow,340,2013-03-25 10:52:00
6:52 AM,24.1,19.9,84,30.12,10.0,NNW,15.0,-,0.00,,Clear,340,2013-03-25 11:52:00
7:52 AM,23.0,19.9,88,30.14,10.0,NNW,15.0,-,N/A,,Clear,340,2013-03-25 12:52:00
8:52 AM,24.1,19.0,81,30.17,10.0,NNW,16.1,-,N/A,,Clear,340,2013-03-25 13:52:00
9:52 AM,26.1,19.0,75,30.19,10.0,North,19.6,-,N/A,,Clear,350,2013-03-25 14:52:00
10:52 AM,27.0,19.9,75,30.20,10.0,North,19.6,-,N/A,,Clear,350,2013-03-25 15:52:00
11:52 AM,28.9,19.9,69,30.21,10.0,North,23.0,-,N/A,,Clear,350,2013-03-25 16:52:00
12:52 PM,30.9,21.9,69,30.21,10.0,NNW,18.4,24.2,N/A,,Partly Cloudy,340,2013-03-25 17:52:00
1:52 PM,33.1,23.0,66,30.21,10.0,NNW,18.4,27.6,N/A,,Partly Cloudy,340,2013-03-25 18:52:00
2:52 PM,34.0,23.0,64,30.20,10.0,North,18.4,28.8,N/A,,Partly Cloudy,350,2013-03-25 19:52:00
3:52 PM,33.1,21.0,61,30.20,10.0,North,19.6,27.6,N/A,,Scattered Clouds,350,2013-03-25 20:52:00
4:52 PM,33.1,21.0,61,30.21,10.0,North,17.3,25.3,N/A,,Mostly Cloudy,350,2013-03-25 21:52:00
5:52 PM,32.0,21.0,64,30.22,10.0,NNW,17.3,25.3,N/A,,Mostly Cloudy,340,2013-03-25 22:52:00
6:52 PM,30.9,21.0,67,30.25,10.0,NNW,19.6,25.3,N/A,,Mostly Cloudy,340,2013-03-25 23:52:00
7:05 PM,30.2,21.2,69,30.20,10.0,NNW,18.4,25.3,N/A,,Mostly Cloudy,340,2013-03-26 00:05:00
7:17 PM,30.2,21.2,69,30.21,10.0,NNW,19.6,24.2,N/A,,Scattered Clouds,330,2013-03-26 00:17:00
7:52 PM,28.9,19.9,69,30.28,10.0,NNW,17.3,24.2,N/A,,Clear,340,2013-03-26 00:52:00
8:52 PM,27.0,19.0,72,30.29,10.0,NNW,19.6,-,N/A,,Clear,330,2013-03-26 01:52:00
9:52 PM,25.0,18.0,75,30.32,10.0,NNW,23.0,28.8,N/A,,Clear,340,2013-03-26 02:52:00
10:52 PM,24.1,17.1,75,30.32,10.0,NNW,17.3,-,N/A,,Clear,330,2013-03-26 03:52:00
11:52 PM,23.0,16.0,74,30.33,10.0,NNW,15.0,-,N/A,,Clear,330,2013-03-26 04:52:00